Reuben Lasker — WTEG — position and weather

sailwx.info

Track history (hours):
 
Tides and Currents Weather Stations Pressure Air Temp Water Temp Dewpoint Dewpoint Depression Visibility Wind Speed Wind Dir Waves Ship Positions

Oceanographic research ship Reuben Lasker (United States)

Last reported at 2020-Jan-26 21:22 UTC. Time now 2020-Jan-28 21:03 UTC.
Position N 37°47' W 122°23'.

Length 64 m; draft 6.1 m.

Type: Other ship. MMSI: 369970573.

Date/timePositionNaut miles runAvg speedWind from/ knotsBaromVisibWave heightAir tempDewpointWater temp
2020-Jan-26 21:22N 37°47' W 122°23'1 2.9
2020-Jan-26 21:00N 37°48' W 122°24'4 4.2 260 / 101024.6
2020-Jan-26 20:01N 37°49' W 122°29'166.9
2020-Jan-26 20:00N 37°48' W 122°30'1111.2 250 / 81025.1
2020-Jan-26 19:00N 37°42' W 122°42'2 4.5 270 / 111025.3
2020-Jan-26 18:30N 37°41' W 122°45'2 3.9
2020-Jan-26 18:00N 37°40' W 122°47'2140.3
2020-Jan-26 18:00N 37°42' W 122°48'8 7.7 280 / 81024.4
2020-Jan-26 17:00N 37°36' W 122°54'8 7.7 290 / 111023.6
2020-Jan-26 16:00N 37°30' W 123°00'1414.3 310 / 141022.5
2020-Jan-26 15:00N 37°30' W 123°18'1111.3 290 / 141022.0
2020-Jan-26 14:00N 37°24' W 123°30'1111.3 290 / 141021.2
2020-Jan-26 13:00N 37°18' W 123°42'10 9.5 270 / 81020.9
2020-Jan-26 12:00N 37°18' W 123°54'1111.3 270 / 91020.7
2020-Jan-26 11:00N 37°12' W 124°06'1111.3 250 / 131020.6
2020-Jan-26 10:00N 37°06' W 124°18'1111.3 250 / 121020.5
2020-Jan-26 09:00N 37°00' W 124°30'1414.4 220 / 131021.8 5.4 12.812.812.7
2020-Jan-26 08:00N 37°00' W 124°48'1111.3 210 / 131020.7
2020-Jan-26 07:00N 36°54' W 125°00'1111.3 200 / 161020.3
2020-Jan-26 06:00N 36°48' W 125°12'1111.3 200 / 181019.9
2020-Jan-26 05:00N 36°42' W 125°24'10 9.6 190 / 161019.4
2020-Jan-26 04:00N 36°42' W 125°36'1111.3 200 / 171019.2
2020-Jan-26 03:00N 36°36' W 125°48'0 0.0 160 / 131018.9
2020-Jan-26 02:00N 36°36' W 125°48'8 7.7 190 / 151019.5
2020-Jan-26 01:00N 36°42' W 125°42'10 9.6 220 / 151019.1
2020-Jan-26 00:00N 36°42' W 125°30'90 7.5 180 / 141019.0
2020-Jan-25 12:00N 37°30' W 123°54'10 9.5 170 / 101020.5
2020-Jan-25 11:00N 37°30' W 123°42'8 7.7 200 / 71020.5
2020-Jan-25 10:00N 37°36' W 123°36'0 0.0 210 / 51021.2
2020-Jan-25 09:00N 37°36' W 123°36'8 7.7 230 / 101021.4
2020-Jan-25 08:00N 37°42' W 123°30'1111.2 180 / 121021.3
2020-Jan-25 07:00N 37°48' W 123°18'9 9.5 210 / 101021.3
2020-Jan-25 06:00N 37°48' W 123°06'0 0.0 160 / 61021.6
2020-Jan-25 05:00N 37°48' W 123°06'8 7.6 190 / 41021.5
2020-Jan-25 04:00N 37°42' W 123°00'612.7 150 / 31021.4
2020-Jan-25 03:30N 37°40' W 122°53'510.5
2020-Jan-25 03:00N 37°36' W 122°48'1312.9 280 / 31021.8
2020-Jan-25 02:00N 37°24' W 122°42'7 7.0 320 / 41021.2
2020-Jan-25 01:00N 37°18' W 122°38'179.8
2020-Jan-25 01:00N 37°18' W 122°36'1 1.5 340 / 71020.8
2020-Jan-25 00:30N 37°18' W 122°37'1 1.4
2020-Jan-25 00:00N 37°18' W 122°36'1010.5 320 / 81020.8
2020-Jan-24 23:00N 37°14' W 122°48'2102.1
2020-Jan-24 23:00N 37°12' W 122°48'0 0.0 310 / 111021.2
2020-Jan-24 22:00N 37°12' W 122°48'5 4.8 350 / 71021.3
2020-Jan-24 21:00N 37°12' W 122°54'1111.3 310 / 91021.6
2020-Jan-24 20:00N 37°06' W 123°06'8 7.7 010 / 41022.3
2020-Jan-24 19:00N 37°00' W 123°12'0 0.0 270 / 61022.5
2020-Jan-24 18:00N 37°00' W 123°12'5 4.8 1023.2
2020-Jan-24 17:00N 37°00' W 123°18'1111.3 160 / 21022.4
2020-Jan-24 16:00N 36°54' W 123°30'1111.3 280 / 41022.6
2020-Jan-24 15:00N 36°48' W 123°42'1111.3 270 / 71022.5
2020-Jan-24 14:00N 36°42' W 123°54'0 0.0 280 / 41021.9
2020-Jan-24 13:00N 36°42' W 123°54'0 0.0 350 / 51022.0
2020-Jan-24 12:00N 36°42' W 123°54'1111.3 310 / 41021.8
2020-Jan-24 11:00N 36°36' W 124°06'1111.4 300 / 51021.6
2020-Jan-24 10:00N 36°30' W 124°18'10 9.6 280 / 41021.6
2020-Jan-24 09:00N 36°30' W 124°30'8 7.7 290 / 91021.7 5.4 12.812.813.4
2020-Jan-24 08:00N 36°24' W 124°36'0 0.0 280 / 111022.2
2020-Jan-24 07:00N 36°24' W 124°36'1111.4 280 / 111022.2
2020-Jan-24 06:00N 36°18' W 124°48'1111.4 260 / 111022.2
2020-Jan-24 05:00N 36°12' W 125°00'1111.4 220 / 61022.0
2020-Jan-24 04:00N 36°06' W 125°12'8 7.7 240 / 51022.1
2020-Jan-24 03:00N 36°00' W 125°18'0 0.0 210 / 51021.6
2020-Jan-24 02:00N 36°00' W 125°18'0 0.0 170 / 51020.9
2020-Jan-24 01:00N 36°00' W 125°18'0 0.0 270 / 71021.6
2020-Jan-24 00:00N 36°00' W 125°18'0 0.0 250 / 41021.6
2020-Jan-23 23:00N 36°00' W 125°18'0 0.0 270 / 31021.3
2020-Jan-23 22:00N 36°00' W 125°18'0 0.0 280 / 71022.0
2020-Jan-23 21:00N 36°00' W 125°18'1312.9 260 / 131023.1
2020-Jan-23 20:00N 35°48' W 125°12'8 7.7 250 / 101023.9
2020-Jan-23 19:00N 35°42' W 125°06'1313.0 250 / 31024.2
2020-Jan-23 18:00N 35°30' W 125°00'5 4.9 250 / 71024.5
2020-Jan-23 17:00N 35°30' W 124°54'0 0.0 250 / 61024.3
2020-Jan-23 16:00N 35°30' W 124°54'10 9.8 250 / 51024.1
2020-Jan-23 15:00N 35°30' W 124°42'8 7.7 200 / 51023.5
2020-Jan-23 14:00N 35°36' W 124°36'1111.4 260 / 51023.6
2020-Jan-23 13:00N 35°42' W 124°24'1111.4 120 / 21023.1
2020-Jan-23 12:00N 35°48' W 124°12'0 0.0 320 / 61023.7
2020-Jan-23 11:00N 35°48' W 124°12'5 4.9 310 / 41024.0
2020-Jan-23 10:00N 35°48' W 124°06'1111.4 030 / 41024.1
2020-Jan-23 09:00N 35°54' W 123°54'1111.4 010 / 101024.2
2020-Jan-23 08:00N 36°00' W 123°42'1111.4 010 / 101024.8
2020-Jan-23 07:00N 36°06' W 123°30'1 1.0 010 / 121024.5
2020-Jan-23 06:00N 36°07' W 123°29'165.7
2020-Jan-23 06:00N 36°06' W 123°30'1 2.6 010 / 71025.0
2020-Jan-23 05:30N 36°07' W 123°29'4 8.5
2020-Jan-23 05:00N 36°06' W 123°24'8 7.7 350 / 121024.8
2020-Jan-23 04:00N 36°12' W 123°18'1111.4 350 / 111024.3
2020-Jan-23 03:00N 36°18' W 123°06'1111.4 360 / 71024.0
2020-Jan-23 02:00N 36°24' W 122°54'8 7.7 350 / 91023.6
2020-Jan-23 01:00N 36°30' W 122°48'0 0.0 010 / 51023.7
2020-Jan-23 00:00N 36°30' W 122°48'10 9.6 040 / 81023.9
2020-Jan-22 23:00N 36°30' W 122°36'8 7.7 020 / 61023.8
2020-Jan-22 22:00N 36°36' W 122°30'5 4.8 060 / 31024.0
2020-Jan-22 21:00N 36°36' W 122°24'0 0.0 040 / 41024.2
2020-Jan-22 20:00N 36°36' W 122°24'5 4.8 070 / 51024.8
2020-Jan-22 19:00N 36°36' W 122°18'1111.3 050 / 51025.5
2020-Jan-22 18:00N 36°42' W 122°06'1111.3 060 / 81025.5
2020-Jan-22 17:00N 36°36' W 121°54'0 0.0 310 / 11024.6
2020-Jan-22 16:00N 36°36' W 121°54'6 6.0 020 / 11024.1
2020-Jan-22 15:00N 36°42' W 121°54'8 7.7 060 / 101023.8
2020-Jan-22 14:00N 36°48' W 122°00'5 4.8 050 / 91023.4
2020-Jan-22 13:00N 36°48' W 122°06'0 0.0 080 / 81022.3
2020-Jan-22 12:00N 36°48' W 122°06'1212.0 090 / 141022.6
2020-Jan-22 11:00N 36°36' W 122°06'6 6.0 180 / 111022.4
2020-Jan-22 10:00N 36°30' W 122°06'1212.0 170 / 191022.7
2020-Jan-22 09:00N 36°18' W 122°06'8 7.7 130 / 201023.4
2020-Jan-22 08:00N 36°12' W 122°00'10 9.7 120 / 171023.5
2020-Jan-22 07:00N 36°12' W 121°48'5 4.8 110 / 81023.7
2020-Jan-22 06:00N 36°12' W 121°42'0 0.0 110 / 61023.7
2020-Jan-22 05:00N 36°12' W 121°42'1111.4 060 / 41023.2
2020-Jan-22 04:00N 36°06' W 121°54'8 7.7 140 / 91022.5
2020-Jan-22 03:00N 36°00' W 122°00'6 6.0 130 / 91022.9
2020-Jan-22 02:00N 36°06' W 122°00'8 7.7 190 / 81022.5
2020-Jan-22 01:00N 36°00' W 122°06'8 7.7 160 / 121021.8
2020-Jan-22 00:00N 35°54' W 122°12'5 4.9 170 / 111021.2
2020-Jan-21 23:00N 35°54' W 122°18'5 4.9 180 / 101021.2
2020-Jan-21 22:00N 35°54' W 122°24'8 7.7 180 / 111020.9
2020-Jan-21 21:00N 35°48' W 122°30'5 4.9 190 / 121021.4
2020-Jan-21 20:00N 35°48' W 122°36'1111.4 190 / 111022.0
2020-Jan-21 19:00N 35°42' W 122°48'8 7.7 170 / 141021.9
2020-Jan-21 18:00N 35°36' W 122°54'1111.5 170 / 151020.8
2020-Jan-21 17:00N 35°30' W 123°06'6 6.0 200 / 101021.6
2020-Jan-21 16:00N 35°36' W 123°06'6 6.0 180 / 81020.7
2020-Jan-21 15:00N 35°30' W 123°06'10 9.8 190 / 111020.2
2020-Jan-21 14:00N 35°30' W 123°18'8 7.7 190 / 101019.7
2020-Jan-21 13:00N 35°24' W 123°24'1111.5 210 / 131019.2
2020-Jan-21 12:00N 35°18' W 123°36'8 7.7 180 / 101019.2
2020-Jan-21 11:00N 35°12' W 123°42'5 4.9 200 / 81019.9
2020-Jan-21 10:00N 35°12' W 123°48'0 0.0 230 / 121019.5
2020-Jan-21 09:00N 35°12' W 123°48'1211.5 220 / 121019.6
2020-Jan-21 08:00N 35°06' W 124°00'1211.5 210 / 81019.4
2020-Jan-21 07:00N 35°00' W 124°12'8 7.8 220 / 81019.2
2020-Jan-21 06:00N 34°54' W 124°18'10 9.8 210 / 111018.7 5.4
2020-Jan-21 05:00N 34°54' W 124°30'0 0.0 230 / 91018.7
2020-Jan-21 04:00N 34°54' W 124°30'8 7.8 200 / 71017.7
2020-Jan-21 03:00N 34°48' W 124°24'8 7.8 210 / 71017.2
2020-Jan-21 02:00N 34°42' W 124°18'1313.0 250 / 71016.9
2020-Jan-21 01:00N 34°30' W 124°12'8 7.8 250 / 61016.6
2020-Jan-21 00:00N 34°24' W 124°06'8 7.8 260 / 51016.8
2020-Jan-20 23:00N 34°18' W 124°00'5 5.0 240 / 91017.2
2020-Jan-20 22:00N 34°18' W 124°06'1211.6 250 / 111017.0
2020-Jan-20 21:00N 34°24' W 123°54'5 5.0 230 / 71016.910.8 12.810.913.4
2020-Jan-20 20:00N 34°24' W 123°48'1211.6 260 / 61017.8
2020-Jan-20 19:00N 34°30' W 123°36'1211.6 220 / 71018.0
2020-Jan-20 18:00N 34°36' W 123°24'5 4.9 230 / 71018.0
2020-Jan-20 17:00N 34°36' W 123°18'5 4.9 230 / 91018.2
2020-Jan-20 16:00N 34°36' W 123°24'1211.6 240 / 71017.1
2020-Jan-20 15:00N 34°42' W 123°12'1211.5 220 / 61016.9
2020-Jan-20 14:00N 34°48' W 123°00'1211.5 190 / 31016.6
2020-Jan-20 13:00N 34°54' W 122°48'1211.5 250 / 61016.2
2020-Jan-20 12:00N 35°00' W 122°36'5 4.9 220 / 91016.5
2020-Jan-20 11:00N 35°00' W 122°42'5 4.9 270 / 81016.1
2020-Jan-20 10:00N 35°00' W 122°36'1211.5 180 / 81016.7
2020-Jan-20 09:00N 35°06' W 122°24'1211.5 240 / 21016.7
2020-Jan-20 08:00N 35°12' W 122°12'8 7.7 090 / 51016.7
2020-Jan-20 07:00N 35°18' W 122°06'5 4.9 020 / 71016.6
2020-Jan-20 06:00N 35°18' W 122°00'0 0.0 010 / 41016.8
2020-Jan-20 05:00N 35°18' W 122°00'1111.5 260 / 41017.8
2020-Jan-20 04:00N 35°24' W 121°48'1111.5 130 / 41017.1
2020-Jan-20 03:00N 35°30' W 121°36'0 0.0 200 / 31017.5
2020-Jan-20 02:00N 35°30' W 121°36'0 0.0 140 / 31016.8
2020-Jan-20 01:00N 35°30' W 121°36'10 9.8 100 / 71016.5
2020-Jan-20 00:00N 35°30' W 121°24'8 7.7 1016.310.8 13.310.513.1
2020-Jan-19 23:00N 35°36' W 121°18'5 4.9 090 / 31016.8
2020-Jan-19 22:00N 35°36' W 121°12'8 7.7 080 / 31017.5
2020-Jan-19 21:00N 35°30' W 121°06'1313.0 010 / 11018.3
2020-Jan-19 20:00N 35°18' W 121°00'8 7.7 080 / 61019.1
2020-Jan-19 19:00N 35°12' W 120°54'8 7.8 120 / 31020.9
2020-Jan-19 18:00N 35°06' W 120°48'0 0.0 120 / 91020.5
2020-Jan-19 17:00N 35°06' W 120°48'8 7.8 090 / 21020.5
2020-Jan-19 16:00N 35°00' W 120°54'0 0.0 090 / 111019.7
2020-Jan-19 15:00N 35°00' W 120°54'1211.5 090 / 81019.3
2020-Jan-19 14:00N 34°54' W 121°06'5 4.9 090 / 61018.7
2020-Jan-19 13:00N 34°54' W 121°12'0 0.0 070 / 101018.9
2020-Jan-19 12:00N 34°54' W 121°12'8 7.8 040 / 61019.2
2020-Jan-19 11:00N 34°48' W 121°18'1211.5 350 / 61019.3
2020-Jan-19 10:00N 34°42' W 121°30'0 0.0 040 / 71019.9
2020-Jan-19 09:00N 34°42' W 121°30'5 4.9 040 / 71020.7
2020-Jan-19 08:00N 34°42' W 121°36'1211.6 350 / 181021.4
2020-Jan-19 07:00N 34°36' W 121°48'1211.6 350 / 161021.7
2020-Jan-19 06:00N 34°30' W 122°00'5 4.9 350 / 161022.4
2020-Jan-19 05:00N 34°30' W 122°06'1211.6 340 / 201023.0
2020-Jan-19 04:00N 34°24' W 122°18'0 0.0 360 / 171023.5
2020-Jan-19 03:00N 34°24' W 122°18'0 0.0 010 / 201023.3
2020-Jan-19 02:00N 34°24' W 122°18'1211.6 320 / 241023.2
2020-Jan-19 01:00N 34°18' W 122°30'1211.6 320 / 221023.5
2020-Jan-19 00:00N 34°12' W 122°42'1211.6 340 / 201023.5
2020-Jan-18 23:00N 34°06' W 122°54'5 5.0 340 / 191023.8
2020-Jan-18 22:00N 34°06' W 123°00'5 5.0 340 / 131023.8
2020-Jan-18 21:00N 34°06' W 122°54'1211.6 010 / 131024.4
2020-Jan-18 20:00N 34°00' W 123°06'1211.6 350 / 141025.5
2020-Jan-18 19:00N 33°54' W 123°18'8 7.8 340 / 121026.6
2020-Jan-18 18:00N 33°48' W 123°24'1211.6 340 / 141026.7
2020-Jan-18 17:00N 33°42' W 123°36'0 0.0 340 / 121026.7
2020-Jan-18 16:00N 33°42' W 123°36'5 5.0 030 / 91026.3
2020-Jan-18 15:00N 33°42' W 123°42'1211.7 360 / 71025.6
2020-Jan-18 14:00N 33°36' W 123°54'8 7.8 1025.2
2020-Jan-18 13:00N 33°30' W 124°00'1010.0 360 / 31025.0
2020-Jan-18 12:00N 33°30' W 124°12'1211.7 150 / 31024.9
2020-Jan-18 11:00N 33°24' W 124°24'5 5.0 150 / 41025.2
2020-Jan-18 10:00N 33°24' W 124°18'6 6.0 130 / 21025.2
2020-Jan-18 09:00N 33°18' W 124°18'8 7.8 110 / 51025.6
2020-Jan-18 08:00N 33°12' W 124°12'1313.0 090 / 41026.1
2020-Jan-18 07:00N 33°00' W 124°06'8 7.8 090 / 71026.2
2020-Jan-18 06:00N 32°54' W 124°00'8 7.8 050 / 31026.4
2020-Jan-18 05:00N 32°48' W 123°54'0 0.0 060 / 11025.9
2020-Jan-18 04:00N 32°48' W 123°54'8 7.8 080 / 51025.8
2020-Jan-18 03:00N 32°54' W 123°48'1010.1 060 / 51026.0
2020-Jan-18 02:00N 32°54' W 123°36'8 7.8 010 / 51025.6
2020-Jan-18 01:00N 33°00' W 123°30'1211.7 030 / 41025.4
2020-Jan-18 00:00N 33°06' W 123°18'5 5.0 040 / 51025.2
2020-Jan-17 23:00N 33°06' W 123°12'6 6.0 050 / 51025.6
2020-Jan-17 22:00N 33°12' W 123°12'5 5.0 030 / 101025.5
2020-Jan-17 21:00N 33°12' W 123°06'1211.7 010 / 71025.8
2020-Jan-17 20:00N 33°18' W 122°54'1211.7 010 / 101026.6
2020-Jan-17 19:00N 33°24' W 122°42'1211.7 1027.0
2020-Jan-17 18:00N 33°30' W 122°30'5 5.0 010 / 101026.5
2020-Jan-17 17:00N 33°30' W 122°36'5 5.0 320 / 81025.9
2020-Jan-17 16:00N 33°30' W 122°30'5 5.0 020 / 81025.1
2020-Jan-17 15:00N 33°30' W 122°24'1211.7 010 / 111024.3
2020-Jan-17 14:00N 33°36' W 122°12'8 7.8 350 / 131023.7
2020-Jan-17 13:00N 33°42' W 122°06'1211.6 350 / 101023.2
2020-Jan-17 12:00N 33°48' W 121°54'0 0.0 350 / 131022.7
2020-Jan-17 11:00N 33°48' W 121°54'5 5.0 350 / 111023.0
2020-Jan-17 10:00N 33°48' W 121°48'8 7.8 350 / 121022.3
2020-Jan-17 09:00N 33°54' W 121°42'1211.6 340 / 151021.6
2020-Jan-17 08:00N 34°00' W 121°30'10 9.9 340 / 151021.3
2020-Jan-17 07:00N 34°00' W 121°18'8 7.8 320 / 101020.9
2020-Jan-17 06:00N 34°06' W 121°12'0 0.0 290 / 91020.2
2020-Jan-17 05:00N 34°06' W 121°12'0 0.0 310 / 41019.5
2020-Jan-17 04:00N 34°06' W 121°12'1211.6 350 / 91018.8
2020-Jan-17 03:00N 34°12' W 121°00'8 7.8 350 / 31017.8
2020-Jan-17 02:00N 34°18' W 120°54'5 5.0 010 / 151017.0
2020-Jan-17 01:00N 34°18' W 120°48'0 0.0 350 / 211016.1
2020-Jan-17 00:00N 34°18' W 120°48'1211.6 160 / 281014.5
2020-Jan-16 23:00N 34°24' W 120°36'8 7.8 140 / 331014.1
2020-Jan-16 22:00N 34°30' W 120°30'   130 / 151015.1
Track history (hours):
 
Tides and Currents Weather Stations Pressure Air Temp Water Temp Dewpoint Dewpoint Depression Visibility Wind Speed Wind Dir Waves Ship Positions

Oceanographic research ship Reuben Lasker (United States)

Last reported at 2020-Jan-26 21:22 UTC. Time now 2020-Jan-28 21:03 UTC.
Position N 37°47' W 122°23'.

Length 64 m; draft 6.1 m.

Type: Other ship. MMSI: 369970573.

Date/timePositionNaut miles runAvg speedWind from/ knotsBaromVisibWave heightAir tempDewpointWater temp
2020-Jan-26 21:22N 37°47' W 122°23'1 2.9
2020-Jan-26 21:00N 37°48' W 122°24'4 4.2 260 / 101024.6
2020-Jan-26 20:01N 37°49' W 122°29'166.9
2020-Jan-26 20:00N 37°48' W 122°30'1111.2 250 / 81025.1
2020-Jan-26 19:00N 37°42' W 122°42'2 4.5 270 / 111025.3
2020-Jan-26 18:30N 37°41' W 122°45'2 3.9
2020-Jan-26 18:00N 37°40' W 122°47'2140.3
2020-Jan-26 18:00N 37°42' W 122°48'8 7.7 280 / 81024.4
2020-Jan-26 17:00N 37°36' W 122°54'8 7.7 290 / 111023.6
2020-Jan-26 16:00N 37°30' W 123°00'1414.3 310 / 141022.5
2020-Jan-26 15:00N 37°30' W 123°18'1111.3 290 / 141022.0
2020-Jan-26 14:00N 37°24' W 123°30'1111.3 290 / 141021.2
2020-Jan-26 13:00N 37°18' W 123°42'10 9.5 270 / 81020.9
2020-Jan-26 12:00N 37°18' W 123°54'1111.3 270 / 91020.7
2020-Jan-26 11:00N 37°12' W 124°06'1111.3 250 / 131020.6
2020-Jan-26 10:00N 37°06' W 124°18'1111.3 250 / 121020.5
2020-Jan-26 09:00N 37°00' W 124°30'1414.4 220 / 131021.8 5.4 12.812.812.7
2020-Jan-26 08:00N 37°00' W 124°48'1111.3 210 / 131020.7
2020-Jan-26 07:00N 36°54' W 125°00'1111.3 200 / 161020.3
2020-Jan-26 06:00N 36°48' W 125°12'1111.3 200 / 181019.9
2020-Jan-26 05:00N 36°42' W 125°24'10 9.6 190 / 161019.4
2020-Jan-26 04:00N 36°42' W 125°36'1111.3 200 / 171019.2
2020-Jan-26 03:00N 36°36' W 125°48'0 0.0 160 / 131018.9
2020-Jan-26 02:00N 36°36' W 125°48'8 7.7 190 / 151019.5
2020-Jan-26 01:00N 36°42' W 125°42'10 9.6 220 / 151019.1
2020-Jan-26 00:00N 36°42' W 125°30'90 7.5 180 / 141019.0
2020-Jan-25 12:00N 37°30' W 123°54'10 9.5 170 / 101020.5
2020-Jan-25 11:00N 37°30' W 123°42'8 7.7 200 / 71020.5
2020-Jan-25 10:00N 37°36' W 123°36'0 0.0 210 / 51021.2
2020-Jan-25 09:00N 37°36' W 123°36'8 7.7 230 / 101021.4
2020-Jan-25 08:00N 37°42' W 123°30'1111.2 180 / 121021.3
2020-Jan-25 07:00N 37°48' W 123°18'9 9.5 210 / 101021.3
2020-Jan-25 06:00N 37°48' W 123°06'0 0.0 160 / 61021.6
2020-Jan-25 05:00N 37°48' W 123°06'8 7.6 190 / 41021.5
2020-Jan-25 04:00N 37°42' W 123°00'612.7 150 / 31021.4
2020-Jan-25 03:30N 37°40' W 122°53'510.5
2020-Jan-25 03:00N 37°36' W 122°48'1312.9 280 / 31021.8
2020-Jan-25 02:00N 37°24' W 122°42'7 7.0 320 / 41021.2
2020-Jan-25 01:00N 37°18' W 122°38'179.8
2020-Jan-25 01:00N 37°18' W 122°36'1 1.5 340 / 71020.8
2020-Jan-25 00:30N 37°18' W 122°37'1 1.4
2020-Jan-25 00:00N 37°18' W 122°36'1010.5 320 / 81020.8
2020-Jan-24 23:00N 37°14' W 122°48'2102.1
2020-Jan-24 23:00N 37°12' W 122°48'0 0.0 310 / 111021.2
2020-Jan-24 22:00N 37°12' W 122°48'5 4.8 350 / 71021.3
2020-Jan-24 21:00N 37°12' W 122°54'1111.3 310 / 91021.6
2020-Jan-24 20:00N 37°06' W 123°06'8 7.7 010 / 41022.3
2020-Jan-24 19:00N 37°00' W 123°12'0 0.0 270 / 61022.5
2020-Jan-24 18:00N 37°00' W 123°12'5 4.8 1023.2
2020-Jan-24 17:00N 37°00' W 123°18'1111.3 160 / 21022.4
2020-Jan-24 16:00N 36°54' W 123°30'1111.3 280 / 41022.6
2020-Jan-24 15:00N 36°48' W 123°42'1111.3 270 / 71022.5
2020-Jan-24 14:00N 36°42' W 123°54'0 0.0 280 / 41021.9
2020-Jan-24 13:00N 36°42' W 123°54'0 0.0 350 / 51022.0
2020-Jan-24 12:00N 36°42' W 123°54'1111.3 310 / 41021.8
2020-Jan-24 11:00N 36°36' W 124°06'1111.4 300 / 51021.6
2020-Jan-24 10:00N 36°30' W 124°18'10 9.6 280 / 41021.6
2020-Jan-24 09:00N 36°30' W 124°30'8 7.7 290 / 91021.7 5.4 12.812.813.4
2020-Jan-24 08:00N 36°24' W 124°36'0 0.0 280 / 111022.2
2020-Jan-24 07:00N 36°24' W 124°36'1111.4 280 / 111022.2
2020-Jan-24 06:00N 36°18' W 124°48'1111.4 260 / 111022.2
2020-Jan-24 05:00N 36°12' W 125°00'1111.4 220 / 61022.0
2020-Jan-24 04:00N 36°06' W 125°12'8 7.7 240 / 51022.1
2020-Jan-24 03:00N 36°00' W 125°18'0 0.0 210 / 51021.6
2020-Jan-24 02:00N 36°00' W 125°18'0 0.0 170 / 51020.9
2020-Jan-24 01:00N 36°00' W 125°18'0 0.0 270 / 71021.6
2020-Jan-24 00:00N 36°00' W 125°18'0 0.0 250 / 41021.6
2020-Jan-23 23:00N 36°00' W 125°18'0 0.0 270 / 31021.3
2020-Jan-23 22:00N 36°00' W 125°18'0 0.0 280 / 71022.0
2020-Jan-23 21:00N 36°00' W 125°18'1312.9 260 / 131023.1
2020-Jan-23 20:00N 35°48' W 125°12'8 7.7 250 / 101023.9
2020-Jan-23 19:00N 35°42' W 125°06'1313.0 250 / 31024.2
2020-Jan-23 18:00N 35°30' W 125°00'5 4.9 250 / 71024.5
2020-Jan-23 17:00N 35°30' W 124°54'0 0.0 250 / 61024.3
2020-Jan-23 16:00N 35°30' W 124°54'10 9.8 250 / 51024.1
2020-Jan-23 15:00N 35°30' W 124°42'8 7.7 200 / 51023.5
2020-Jan-23 14:00N 35°36' W 124°36'1111.4 260 / 51023.6
2020-Jan-23 13:00N 35°42' W 124°24'1111.4 120 / 21023.1
2020-Jan-23 12:00N 35°48' W 124°12'0 0.0 320 / 61023.7
2020-Jan-23 11:00N 35°48' W 124°12'5 4.9 310 / 41024.0
2020-Jan-23 10:00N 35°48' W 124°06'1111.4 030 / 41024.1
2020-Jan-23 09:00N 35°54' W 123°54'1111.4 010 / 101024.2
2020-Jan-23 08:00N 36°00' W 123°42'1111.4 010 / 101024.8
2020-Jan-23 07:00N 36°06' W 123°30'1 1.0 010 / 121024.5
2020-Jan-23 06:00N 36°07' W 123°29'165.7
2020-Jan-23 06:00N 36°06' W 123°30'1 2.6 010 / 71025.0
2020-Jan-23 05:30N 36°07' W 123°29'4 8.5
2020-Jan-23 05:00N 36°06' W 123°24'8 7.7 350 / 121024.8
2020-Jan-23 04:00N 36°12' W 123°18'1111.4 350 / 111024.3
2020-Jan-23 03:00N 36°18' W 123°06'1111.4 360 / 71024.0
2020-Jan-23 02:00N 36°24' W 122°54'8 7.7 350 / 91023.6
2020-Jan-23 01:00N 36°30' W 122°48'0 0.0 010 / 51023.7
2020-Jan-23 00:00N 36°30' W 122°48'10 9.6 040 / 81023.9
2020-Jan-22 23:00N 36°30' W 122°36'8 7.7 020 / 61023.8
2020-Jan-22 22:00N 36°36' W 122°30'5 4.8 060 / 31024.0
2020-Jan-22 21:00N 36°36' W 122°24'0 0.0 040 / 41024.2
2020-Jan-22 20:00N 36°36' W 122°24'5 4.8 070 / 51024.8
2020-Jan-22 19:00N 36°36' W 122°18'1111.3 050 / 51025.5
2020-Jan-22 18:00N 36°42' W 122°06'1111.3 060 / 81025.5
2020-Jan-22 17:00N 36°36' W 121°54'0 0.0 310 / 11024.6
2020-Jan-22 16:00N 36°36' W 121°54'6 6.0 020 / 11024.1
2020-Jan-22 15:00N 36°42' W 121°54'8 7.7 060 / 101023.8
2020-Jan-22 14:00N 36°48' W 122°00'5 4.8 050 / 91023.4
2020-Jan-22 13:00N 36°48' W 122°06'0 0.0 080 / 81022.3
2020-Jan-22 12:00N 36°48' W 122°06'1212.0 090 / 141022.6
2020-Jan-22 11:00N 36°36' W 122°06'6 6.0 180 / 111022.4
2020-Jan-22 10:00N 36°30' W 122°06'1212.0 170 / 191022.7
2020-Jan-22 09:00N 36°18' W 122°06'8 7.7 130 / 201023.4
2020-Jan-22 08:00N 36°12' W 122°00'10 9.7 120 / 171023.5
2020-Jan-22 07:00N 36°12' W 121°48'5 4.8 110 / 81023.7
2020-Jan-22 06:00N 36°12' W 121°42'0 0.0 110 / 61023.7
2020-Jan-22 05:00N 36°12' W 121°42'1111.4 060 / 41023.2
2020-Jan-22 04:00N 36°06' W 121°54'8 7.7 140 / 91022.5
2020-Jan-22 03:00N 36°00' W 122°00'6 6.0 130 / 91022.9
2020-Jan-22 02:00N 36°06' W 122°00'8 7.7 190 / 81022.5
2020-Jan-22 01:00N 36°00' W 122°06'8 7.7 160 / 121021.8
2020-Jan-22 00:00N 35°54' W 122°12'5 4.9 170 / 111021.2
2020-Jan-21 23:00N 35°54' W 122°18'5 4.9 180 / 101021.2
2020-Jan-21 22:00N 35°54' W 122°24'8 7.7 180 / 111020.9
2020-Jan-21 21:00N 35°48' W 122°30'5 4.9 190 / 121021.4
2020-Jan-21 20:00N 35°48' W 122°36'1111.4 190 / 111022.0
2020-Jan-21 19:00N 35°42' W 122°48'8 7.7 170 / 141021.9
2020-Jan-21 18:00N 35°36' W 122°54'1111.5 170 / 151020.8
2020-Jan-21 17:00N 35°30' W 123°06'6 6.0 200 / 101021.6
2020-Jan-21 16:00N 35°36' W 123°06'6 6.0 180 / 81020.7
2020-Jan-21 15:00N 35°30' W 123°06'10 9.8 190 / 111020.2
2020-Jan-21 14:00N 35°30' W 123°18'8 7.7 190 / 101019.7
2020-Jan-21 13:00N 35°24' W 123°24'1111.5 210 / 131019.2
2020-Jan-21 12:00N 35°18' W 123°36'8 7.7 180 / 101019.2
2020-Jan-21 11:00N 35°12' W 123°42'5 4.9 200 / 81019.9
2020-Jan-21 10:00N 35°12' W 123°48'0 0.0 230 / 121019.5
2020-Jan-21 09:00N 35°12' W 123°48'1211.5 220 / 121019.6
2020-Jan-21 08:00N 35°06' W 124°00'1211.5 210 / 81019.4
2020-Jan-21 07:00N 35°00' W 124°12'8 7.8 220 / 81019.2
2020-Jan-21 06:00N 34°54' W 124°18'10 9.8 210 / 111018.7 5.4
2020-Jan-21 05:00N 34°54' W 124°30'0 0.0 230 / 91018.7
2020-Jan-21 04:00N 34°54' W 124°30'8 7.8 200 / 71017.7
2020-Jan-21 03:00N 34°48' W 124°24'8 7.8 210 / 71017.2
2020-Jan-21 02:00N 34°42' W 124°18'1313.0 250 / 71016.9
2020-Jan-21 01:00N 34°30' W 124°12'8 7.8 250 / 61016.6
2020-Jan-21 00:00N 34°24' W 124°06'8 7.8 260 / 51016.8
2020-Jan-20 23:00N 34°18' W 124°00'5 5.0 240 / 91017.2
2020-Jan-20 22:00N 34°18' W 124°06'1211.6 250 / 111017.0
2020-Jan-20 21:00N 34°24' W 123°54'5 5.0 230 / 71016.910.8 12.810.913.4
2020-Jan-20 20:00N 34°24' W 123°48'1211.6 260 / 61017.8
2020-Jan-20 19:00N 34°30' W 123°36'1211.6 220 / 71018.0
2020-Jan-20 18:00N 34°36' W 123°24'5 4.9 230 / 71018.0
2020-Jan-20 17:00N 34°36' W 123°18'5 4.9 230 / 91018.2
2020-Jan-20 16:00N 34°36' W 123°24'1211.6 240 / 71017.1
2020-Jan-20 15:00N 34°42' W 123°12'1211.5 220 / 61016.9
2020-Jan-20 14:00N 34°48' W 123°00'1211.5 190 / 31016.6
2020-Jan-20 13:00N 34°54' W 122°48'1211.5 250 / 61016.2
2020-Jan-20 12:00N 35°00' W 122°36'5 4.9 220 / 91016.5
2020-Jan-20 11:00N 35°00' W 122°42'5 4.9 270 / 81016.1
2020-Jan-20 10:00N 35°00' W 122°36'1211.5 180 / 81016.7
2020-Jan-20 09:00N 35°06' W 122°24'1211.5 240 / 21016.7
2020-Jan-20 08:00N 35°12' W 122°12'8 7.7 090 / 51016.7
2020-Jan-20 07:00N 35°18' W 122°06'5 4.9 020 / 71016.6
2020-Jan-20 06:00N 35°18' W 122°00'0 0.0 010 / 41016.8
2020-Jan-20 05:00N 35°18' W 122°00'1111.5 260 / 41017.8
2020-Jan-20 04:00N 35°24' W 121°48'1111.5 130 / 41017.1
2020-Jan-20 03:00N 35°30' W 121°36'0 0.0 200 / 31017.5
2020-Jan-20 02:00N 35°30' W 121°36'0 0.0 140 / 31016.8
2020-Jan-20 01:00N 35°30' W 121°36'10 9.8 100 / 71016.5
2020-Jan-20 00:00N 35°30' W 121°24'8 7.7 1016.310.8 13.310.513.1
2020-Jan-19 23:00N 35°36' W 121°18'5 4.9 090 / 31016.8
2020-Jan-19 22:00N 35°36' W 121°12'8 7.7 080 / 31017.5
2020-Jan-19 21:00N 35°30' W 121°06'1313.0 010 / 11018.3
2020-Jan-19 20:00N 35°18' W 121°00'8 7.7 080 / 61019.1
2020-Jan-19 19:00N 35°12' W 120°54'8 7.8 120 / 31020.9
2020-Jan-19 18:00N 35°06' W 120°48'0 0.0 120 / 91020.5
2020-Jan-19 17:00N 35°06' W 120°48'8 7.8 090 / 21020.5
2020-Jan-19 16:00N 35°00' W 120°54'0 0.0 090 / 111019.7
2020-Jan-19 15:00N 35°00' W 120°54'1211.5 090 / 81019.3
2020-Jan-19 14:00N 34°54' W 121°06'5 4.9 090 / 61018.7
2020-Jan-19 13:00N 34°54' W 121°12'0 0.0 070 / 101018.9
2020-Jan-19 12:00N 34°54' W 121°12'8 7.8 040 / 61019.2
2020-Jan-19 11:00N 34°48' W 121°18'1211.5 350 / 61019.3
2020-Jan-19 10:00N 34°42' W 121°30'0 0.0 040 / 71019.9
2020-Jan-19 09:00N 34°42' W 121°30'5 4.9 040 / 71020.7
2020-Jan-19 08:00N 34°42' W 121°36'1211.6 350 / 181021.4
2020-Jan-19 07:00N 34°36' W 121°48'1211.6 350 / 161021.7
2020-Jan-19 06:00N 34°30' W 122°00'5 4.9 350 / 161022.4
2020-Jan-19 05:00N 34°30' W 122°06'1211.6 340 / 201023.0
2020-Jan-19 04:00N 34°24' W 122°18'0 0.0 360 / 171023.5
2020-Jan-19 03:00N 34°24' W 122°18'0 0.0 010 / 201023.3
2020-Jan-19 02:00N 34°24' W 122°18'1211.6 320 / 241023.2
2020-Jan-19 01:00N 34°18' W 122°30'1211.6 320 / 221023.5
2020-Jan-19 00:00N 34°12' W 122°42'1211.6 340 / 201023.5
2020-Jan-18 23:00N 34°06' W 122°54'5 5.0 340 / 191023.8
2020-Jan-18 22:00N 34°06' W 123°00'5 5.0 340 / 131023.8
2020-Jan-18 21:00N 34°06' W 122°54'1211.6 010 / 131024.4
2020-Jan-18 20:00N 34°00' W 123°06'1211.6 350 / 141025.5
2020-Jan-18 19:00N 33°54' W 123°18'8 7.8 340 / 121026.6
2020-Jan-18 18:00N 33°48' W 123°24'1211.6 340 / 141026.7
2020-Jan-18 17:00N 33°42' W 123°36'0 0.0 340 / 121026.7
2020-Jan-18 16:00N 33°42' W 123°36'5 5.0 030 / 91026.3
2020-Jan-18 15:00N 33°42' W 123°42'1211.7 360 / 71025.6
2020-Jan-18 14:00N 33°36' W 123°54'8 7.8 1025.2
2020-Jan-18 13:00N 33°30' W 124°00'1010.0 360 / 31025.0
2020-Jan-18 12:00N 33°30' W 124°12'1211.7 150 / 31024.9
2020-Jan-18 11:00N 33°24' W 124°24'5 5.0 150 / 41025.2
2020-Jan-18 10:00N 33°24' W 124°18'6 6.0 130 / 21025.2
2020-Jan-18 09:00N 33°18' W 124°18'8 7.8 110 / 51025.6
2020-Jan-18 08:00N 33°12' W 124°12'1313.0 090 / 41026.1
2020-Jan-18 07:00N 33°00' W 124°06'8 7.8 090 / 71026.2
2020-Jan-18 06:00N 32°54' W 124°00'8 7.8 050 / 31026.4
2020-Jan-18 05:00N 32°48' W 123°54'0 0.0 060 / 11025.9
2020-Jan-18 04:00N 32°48' W 123°54'8 7.8 080 / 51025.8
2020-Jan-18 03:00N 32°54' W 123°48'1010.1 060 / 51026.0
2020-Jan-18 02:00N 32°54' W 123°36'8 7.8 010 / 51025.6
2020-Jan-18 01:00N 33°00' W 123°30'1211.7 030 / 41025.4
2020-Jan-18 00:00N 33°06' W 123°18'5 5.0 040 / 51025.2
2020-Jan-17 23:00N 33°06' W 123°12'6 6.0 050 / 51025.6
2020-Jan-17 22:00N 33°12' W 123°12'5 5.0 030 / 101025.5
2020-Jan-17 21:00N 33°12' W 123°06'1211.7 010 / 71025.8
2020-Jan-17 20:00N 33°18' W 122°54'1211.7 010 / 101026.6
2020-Jan-17 19:00N 33°24' W 122°42'1211.7 1027.0
2020-Jan-17 18:00N 33°30' W 122°30'5 5.0 010 / 101026.5
2020-Jan-17 17:00N 33°30' W 122°36'5 5.0 320 / 81025.9
2020-Jan-17 16:00N 33°30' W 122°30'5 5.0 020 / 81025.1
2020-Jan-17 15:00N 33°30' W 122°24'1211.7 010 / 111024.3
2020-Jan-17 14:00N 33°36' W 122°12'8 7.8 350 / 131023.7
2020-Jan-17 13:00N 33°42' W 122°06'1211.6 350 / 101023.2
2020-Jan-17 12:00N 33°48' W 121°54'0 0.0 350 / 131022.7
2020-Jan-17 11:00N 33°48' W 121°54'5 5.0 350 / 111023.0
2020-Jan-17 10:00N 33°48' W 121°48'8 7.8 350 / 121022.3
2020-Jan-17 09:00N 33°54' W 121°42'1211.6 340 / 151021.6
2020-Jan-17 08:00N 34°00' W 121°30'10 9.9 340 / 151021.3
2020-Jan-17 07:00N 34°00' W 121°18'8 7.8 320 / 101020.9
2020-Jan-17 06:00N 34°06' W 121°12'0 0.0 290 / 91020.2
2020-Jan-17 05:00N 34°06' W 121°12'0 0.0 310 / 41019.5
2020-Jan-17 04:00N 34°06' W 121°12'1211.6 350 / 91018.8
2020-Jan-17 03:00N 34°12' W 121°00'8 7.8 350 / 31017.8
2020-Jan-17 02:00N 34°18' W 120°54'5 5.0 010 / 151017.0
2020-Jan-17 01:00N 34°18' W 120°48'0 0.0 350 / 211016.1
2020-Jan-17 00:00N 34°18' W 120°48'1211.6 160 / 281014.5
2020-Jan-16 23:00N 34°24' W 120°36'8 7.8 140 / 331014.1
2020-Jan-16 22:00N 34°30' W 120°30'   130 / 151015.1

Dump ship's entire track history